Wind_Speed
1 8 4 13 4 2 4 6 3 11 16 17 20 18 18 12 4 7 15 24 24 18 16 15 17 18 18 19 18 19 19 18 16 17 16 17 14 14 15 15 15 15 15 15 14 13 12 14 13
7 7 12 3 3 1 3 8 12 16 17 23 24 18 16 15 11 11 14 23 19 22 15 16 17 19 19 21 21 21 19 18 17 17 16 15 13 14 15 14 14 13 13 13 12 12 12 11 11
8 10 4 2 2 4 4 5 16 11 19 16 9 12 8 10 11 6 28 24 24 21 16 16 18 19 19 20 20 20 19 18 17 17 16 15 16 15 14 14 13 12 11 11 11 11 10 11 11
1 6 3 3 4 6 7 10 15 16 19 18 15 12 9 19 10 21 28 21 19 15 16 16 18 21 20 20 20 19 17 18 17 17 16 16 16 13 14 12 12 11 9 9 10 11 10 10 11
0 4 3 0 3 3 11 10 16 21 19 22 21 13 11 12 28 28 28 26 22 17 18 18 22 21 21 20 19 18 19 17 17 17 16 14 13 12 11 10 10 10 10 9 10 10 9 9 12
3 3 3 1 7 8 10 13 21 20 22 22 24 18 8 26 24 29 28 24 22 19 19 16 19 19 20 18 20 20 19 16 15 16 14 13 13 12 11 11 9 9 9 8 8 7 8 9 13
4 3 4 4 8 5 11 13 19 22 16 15 21 16 13 18 24 29 29 27 24 21 18 21 19 18 17 18 19 19 17 18 14 15 13 11 12 11 11 9 9 8 8 7 6 6 6 8 12
7 3 4 2 6 1 15 12 16 21 20 21 22 12 19 23 34 34 31 30 26 22 19 20 20 19 20 17 17 21 16 11 12 13 11 9 9 10 10 9 8 8 7 7 6 6 6 8 10
8 4 4 5 1 7 8 10 16 22 24 19 9 19 26 35 36 29 31 28 24 22 19 18 21 22 21 19 16 15 12 6 10 10 10 11 10 9 9 10 8 8 8 7 6 6 6 8 11
5 2 2 2 5 9 19 7 10 14 19 21 17 22 35 34 33 30 20 16 17 18 19 21 20 20 20 18 16 13 10 10 8 8 8 8 8 6 6 7 8 8 8 7 8 8 8 8 10
3 4 6 5 5 12 16 12 14 10 22 20 20 26 28 31 29 26 24 26 24 21 22 21 22 21 19 20 16 14 9 6 4 5 6 8 9 13 12 8 10 10 7 9 10 10 12 15 14
7 11 12 3 8 9 11 12 6 21 19 18 16 28 25 24 14 36 29 29 30 23 16 19 18 17 15 16 16 10 9 9 13 7 3 6 5 12 9 9 10 13 13 11 11 13 11 7 10
7 12 12 9 7 9 5 9 4 17 16 17 14 17 21 15 26 26 33 36 31 23 22 22 19 18 18 15 11 9 9 8 6 1 2 4 4 7 5 14 11 9 9 23 9 7 11 3 11
6 11 10 7 12 4 4 5 14 12 5 17 12 10 13 18 23 30 31 30 37 33 25 19 18 14 9 8 9 9 7 5 8 6 4 5 8 3 7 1 4 6 8 6 7 8 7 7 6
16 10 9 3 2 2 4 5 4 5 13 16 13 8 17 11 28 29 30 37 38 36 27 21 17 16 14 9 7 11 12 6 12 11 9 11 2 9 9 3 13 3 9 4 8 10 10 6 5
8 5 3 2 2 4 4 4 2 6 10 13 12 9 14 19 29 33 37 37 38 37 33 26 21 18 14 14 10 10 6 9 11 10 10 10 14 7 5 10 2 7 13 3 7 11 9 1 8
4 3 2 1 6 3 3 2 7 7 7 9 2 6 3 8 9 32 35 36 38 36 33 27 24 20 14 14 9 10 11 7 16 11 11 12 7 8 8 12 2 5 6 7 4 11 7 15 10
8 6 2 5 5 7 4 4 3 4 3 7 6 6 4 7 4 11 29 32 36 35 31 30 26 23 19 12 13 10 8 6 9 8 14 10 9 12 2 5 7 4 6 3 11 12 25 16 12
9 8 8 6 8 9 10 6 6 6 4 8 6 1 5 10 22 21 28 32 34 28 23 17 30 25 21 15 11 8 9 8 9 11 11 9 11 11 8 7 10 6 3 3 8 7 10 16 16
16 13 7 4 8 11 9 9 6 8 5 5 10 5 5 3 3 16 23 31 32 30 25 22 27 23 17 20 12 11 8 4 10 11 9 7 9 8 13 12 9 17 7 4 5 3 7 8 5
20 21 14 5 10 14 7 4 8 6 7 10 11 5 5 7 4 5 9 26 29 31 27 24 25 22 18 13 9 13 11 5 13 14 13 11 11 10 10 10 7 6 2 3 8 8 12 11 4
5 18 17 15 15 7 11 4 8 11 13 15 16 9 7 11 6 3 12 21 30 33 30 29 25 21 23 12 11 24 11 13 14 16 13 11 11 10 8 9 7 3 4 7 7 6 7 7 10
7 11 14 15 15 8 14 1 6 15 13 20 19 11 9 6 11 10 12 10 31 33 35 31 27 22 19 16 15 13 14 12 2 21 21 17 13 11 10 10 9 6 4 3 2 4 7 8 7
12 6 4 8 8 4 1 12 4 12 23 20 17 15 16 10 10 11 16 17 19 32 32 34 31 26 22 20 19 18 13 5 5 21 21 17 15 11 9 9 8 4 1 2 3 6 6 6 9
8 5 3 5 4 0 3 3 3 13 6 16 19 19 18 13 9 8 11 11 5 27 30 30 32 27 24 20 19 18 14 6 7 16 14 11 11 11 10 7 6 3 2 1 3 4 4 6 6
5 6 5 5 3 5 9 5 5 10 12 11 12 18 18 17 14 10 18 14 18 20 29 30 32 29 25 23 21 18 16 10 11 11 9 10 11 8 9 10 8 6 7 5 2 5 4 3 2
9 4 10 5 4 1 1 3 8 13 7 13 14 15 18 16 16 15 12 8 24 17 19 31 32 31 28 25 23 22 19 14 11 8 8 8 6 6 16 12 9 10 9 7 6 3 7 6 2
7 5 6 3 3 4 2 3 4 10 8 13 4 11 17 13 15 13 15 13 12 7 20 32 35 33 30 27 22 21 17 16 13 7 5 4 7 8 3 8 5 7 6 4 5 4 3 6 3
3 4 5 2 3 6 2 2 5 8 6 7 14 9 13 13 14 11 16 21 13 11 11 25 30 30 28 25 24 20 19 16 13 9 9 5 7 5 7 6 5 3 4 4 7 8 7 7 5
9 7 6 5 6 2 2 2 5 11 8 7 10 8 4 5 7 9 10 8 9 5 2 12 21 28 26 24 24 23 20 18 16 14 14 10 9 8 9 6 5 5 6 6 5 5 8 6 8
Wind_Direction
165 50 23 35 26 1 272 101 199 99 76 77 71 81 82 46 104 137 158 142 136 134 130 134 131 129 127 127 119 116 116 113 120 117 119 118 112 110 112 112 111 111 108 110 108 109 105 108 115
145 142 40 102 76 52 280 115 89 89 106 101 97 97 69 69 84 118 122 138 140 133 145 138 135 131 125 127 125 125 124 124 124 122 126 123 120 116 115 115 115 113 111 109 113 115 123 128 129
145 133 65 15 213 191 121 279 117 119 109 121 89 90 77 119 131 103 130 123 121 127 144 140 139 131 128 129 130 129 126 126 126 126 127 126 124 122 121 120 117 112 108 112 121 132 130 130 136
252 117 92 224 250 292 121 126 117 110 104 105 107 68 67 120 109 132 128 118 114 122 137 144 145 129 128 124 128 130 132 128 127 128 127 129 126 128 130 128 118 114 117 120 122 130 139 132 140
144 25 134 264 357 256 103 99 89 107 97 96 99 116 104 87 134 134 121 119 115 115 129 132 131 135 131 131 127 132 135 134 133 128 124 127 129 132 132 128 126 124 121 116 126 131 150 145 144
138 154 88 222 273 98 104 124 108 106 104 105 102 115 103 134 137 115 117 114 114 121 117 123 123 125 132 134 135 141 142 134 135 127 124 135 138 139 143 140 135 129 123 121 133 138 144 140 147
105 210 140 15 315 80 117 146 124 123 125 112 133 120 137 137 138 120 121 122 119 119 121 125 127 123 130 132 145 149 141 134 138 126 129 142 149 151 147 142 146 144 139 147 147 153 142 144 155
134 45 41 180 329 5 73 86 117 121 120 127 128 133 141 139 116 119 118 122 125 123 126 123 133 136 139 144 154 154 136 126 128 121 130 142 151 152 144 151 158 163 165 171 182 182 157 159 159
102 56 315 46 36 307 51 100 101 125 134 147 117 139 131 126 128 117 121 128 128 131 128 137 141 139 145 147 150 150 159 134 119 124 135 139 144 137 152 162 169 178 182 181 195 203 200 191 183
55 133 64 29 344 284 322 147 146 134 144 116 123 121 132 130 130 132 132 128 129 138 151 151 153 150 150 147 149 150 157 147 129 141 157 167 159 169 203 184 190 205 214 215 213 227 235 227 212
82 76 112 355 326 287 302 50 59 101 121 140 141 137 141 143 141 139 132 120 135 161 159 158 159 160 155 151 149 145 146 154 163 183 239 256 244 270 221 235 225 219 219 230 232 236 243 256 254
97 107 118 188 185 301 311 317 112 112 138 142 141 143 148 146 139 137 143 139 144 171 162 168 172 165 162 164 156 140 140 113 124 102 88 67 194 183 198 232 242 250 251 263 261 269 284 285 264
103 117 144 180 215 162 308 335 54 133 156 135 146 149 153 144 143 134 136 150 155 166 157 165 176 182 177 186 182 158 169 191 159 117 298 37 184 207 207 235 247 279 278 257 232 229 225 178 148
107 128 151 146 135 110 281 326 83 1 113 137 151 145 131 132 139 137 146 156 165 170 174 165 182 179 167 225 205 196 179 172 176 157 173 303 149 225 291 38 225 214 350 246 211 253 270 316 199
134 126 130 101 219 185 316 40 92 5 32 146 158 183 156 138 144 148 151 170 174 171 166 176 172 175 175 206 225 212 226 181 185 164 107 137 149 4 160 118 116 288 316 264 197 248 267 6 256
105 95 69 48 328 8 322 203 263 48 20 348 165 185 156 167 160 164 167 175 175 169 181 178 179 181 187 193 167 180 197 184 221 156 121 106 120 263 227 145 240 324 295 264 215 243 264 54 127
5 4 31 113 196 151 247 182 276 72 31 342 278 134 133 66 129 165 168 165 163 172 171 171 186 174 174 170 192 152 124 77 168 150 117 117 130 157 161 170 17 296 350 74 38 9 28 34 20
208 149 142 185 188 170 209 197 260 100 97 292 330 359 202 111 313 157 155 149 154 166 168 171 184 168 178 188 176 160 172 164 174 158 141 140 128 120 164 157 203 96 83 92 19 1 81 109 126
156 142 160 257 228 176 191 226 198 163 136 291 328 39 329 172 196 205 162 147 154 161 171 169 181 169 170 178 174 177 215 123 167 135 150 134 118 109 129 229 166 154 63 109 354 327 72 91 91
128 147 193 247 245 202 185 215 165 174 197 191 256 227 204 166 197 170 150 145 156 164 172 158 159 166 173 175 188 196 178 132 164 144 136 142 120 118 140 176 174 177 111 127 25 347 38 142 131
150 175 180 175 206 203 146 229 169 213 204 217 252 217 191 163 68 336 168 157 159 168 174 170 176 179 183 178 175 178 189 143 152 169 165 173 155 154 133 119 78 134 176 85 61 34 24 25 20
238 173 158 185 183 202 167 241 199 189 204 210 228 220 227 177 141 188 266 161 164 173 179 183 182 193 198 182 180 172 162 193 178 185 182 168 174 166 164 144 134 104 143 58 52 53 38 34 27
264 154 169 164 188 218 200 284 249 173 207 212 217 198 217 224 165 221 229 267 171 175 179 188 185 192 201 191 196 182 186 196 127 203 183 176 179 190 180 183 153 127 96 86 41 29 45 19 8
283 295 246 161 203 239 340 198 222 184 213 205 203 195 196 191 209 191 220 238 219 178 179 187 188 189 195 202 198 193 192 204 135 162 170 181 188 197 191 175 190 201 154 58 10 25 30 338 345
270 335 332 315 321 304 37 106 208 314 273 207 192 190 190 186 211 191 204 229 271 190 181 178 188 189 191 196 205 207 198 198 177 182 198 177 198 203 205 201 195 215 134 135 344 339 355 344 332
288 192 171 244 266 215 74 281 257 324 320 290 218 192 179 177 187 217 216 195 210 179 176 183 188 188 196 200 208 213 202 204 184 182 178 154 158 151 180 185 202 197 188 207 221 317 339 357 288
282 312 232 232 243 353 161 107 71 10 31 328 189 180 181 172 198 198 203 230 220 193 199 184 185 190 198 198 207 207 206 209 200 216 202 209 165 151 158 165 199 225 225 215 214 312 337 339 307
180 258 342 8 13 335 112 108 321 346 349 322 254 181 186 190 189 199 190 199 197 222 241 186 189 191 197 199 205 209 208 214 219 223 190 167 136 156 199 189 203 187 215 253 237 230 284 338 280
267 317 329 216 128 187 196 215 241 255 260 299 293 210 195 195 164 173 190 196 211 260 266 189 186 190 196 201 207 208 210 221 223 223 226 211 193 163 178 185 206 263 274 250 243 264 268 299 297
90 41 37 70 348 33 124 257 217 264 282 307 289 224 208 190 143 162 175 160 190 22 204 259 217 193 195 197 208 212 214 216 221 221 228 226 234 214 231 264 257 260 254 261 276 312 254 279 279
Height
770 770 767 768 802 800 794 779 759 766 767 758 757 770 789 790 793 820 808 808 810 812 815 816 817 817 818 819 820 821 823 823 827 827 827 829 827 829 830 831 831 831 832 831 832 832 832 831 832
771 772 769 786 813 816 793 763 775 764 762 761 767 778 786 803 794 802 805 808 809 812 815 817 818 819 821 821 822 823 825 827 828 828 829 830 830 830 831 832 832 833 832 832 832 832 832 832 833
772 777 788 808 811 798 809 785 765 761 753 759 769 770 782 799 797 800 805 808 811 813 815 817 819 821 822 822 823 824 826 828 829 830 830 831 831 833 833 834 834 835 835 835 834 833 833 833 834
773 779 799 807 797 777 768 761 755 762 764 764 767 789 788 793 797 801 807 809 812 815 817 818 819 821 823 824 825 826 827 828 829 830 831 832 833 835 836 836 836 836 837 836 835 834 834 834 834
773 779 809 806 795 767 756 753 753 767 771 776 774 798 797 798 801 805 809 812 815 818 819 820 821 823 824 825 826 827 827 827 829 829 832 834 836 837 837 839 840 840 839 838 837 837 837 835 835
778 783 809 814 792 752 750 749 757 766 771 779 785 793 800 801 805 809 812 815 818 820 822 823 825 826 827 828 827 827 827 827 829 831 834 836 837 838 838 840 841 842 842 842 841 840 839 838 838
779 792 803 799 789 764 754 746 760 769 772 778 780 797 802 805 809 813 815 817 819 823 825 825 827 830 830 830 829 829 829 829 832 832 835 837 839 839 841 843 844 844 843 843 843 843 842 842 841
767 781 797 794 797 782 751 749 749 762 778 770 773 800 806 806 808 812 815 819 821 824 827 828 829 830 831 830 830 830 832 833 834 836 838 840 842 843 844 846 846 845 843 843 844 845 845 843 842
768 805 807 806 799 788 756 762 752 755 770 773 772 784 793 803 806 811 818 820 824 827 829 830 828 829 830 830 831 833 834 836 837 839 841 842 844 846 845 845 845 844 844 844 845 846 846 844 843
779 807 804 800 799 795 788 762 758 764 772 782 783 789 796 803 808 813 821 825 826 826 829 831 830 829 831 833 834 835 838 839 840 841 845 846 846 846 846 846 845 845 846 847 846 847 848 845 842
785 801 801 799 795 802 792 766 755 765 786 782 786 794 797 804 811 816 823 824 821 822 826 830 830 831 834 834 836 839 841 841 842 844 844 845 846 845 848 848 847 847 847 848 846 847 848 846 845
789 788 788 796 799 798 791 773 773 771 780 776 778 788 795 800 814 813 819 820 822 822 827 828 831 833 835 835 837 841 841 840 842 844 843 845 845 847 848 847 846 848 847 847 847 846 847 845 843
784 788 793 792 795 795 786 781 776 780 778 776 779 784 790 796 804 814 815 818 821 822 825 828 830 835 834 836 838 841 840 841 840 841 844 845 846 849 849 848 845 847 847 848 845 846 846 848 844
779 787 794 790 794 797 798 785 779 787 776 777 781 785 792 798 802 813 816 819 820 823 825 828 831 834 839 836 839 841 843 841 840 843 842 846 850 852 855 851 845 844 844 844 846 846 845 845 843
775 792 789 789 794 793 792 798 799 794 780 780 783 785 789 797 801 805 813 818 818 821 825 828 831 834 837 835 839 839 843 845 842 844 848 853 851 855 857 853 843 845 846 845 844 844 842 840 838
785 788 810 799 793 795 796 811 793 790 792 794 783 783 788 791 797 804 806 813 817 820 823 826 828 831 835 838 838 840 843 844 843 846 854 855 852 852 857 855 851 849 848 847 843 842 838 838 835
810 826 809 800 789 796 800 811 794 791 792 796 787 784 787 795 796 798 803 809 813 819 823 825 827 830 833 835 837 838 840 842 843 847 854 859 855 851 852 855 856 852 851 848 846 842 849 842 845
820 818 810 805 785 798 805 804 798 798 800 799 795 793 791 792 794 796 799 804 810 816 821 824 825 829 831 836 838 839 840 844 844 846 853 855 854 852 847 849 851 848 848 845 845 844 849 849 845
783 790 802 795 779 787 797 801 799 801 803 800 800 794 797 793 794 796 798 802 809 814 819 821 824 828 831 835 837 839 840 843 843 845 847 847 850 847 845 851 852 850 851 848 851 849 847 842 841
774 799 802 791 783 785 789 796 795 797 798 795 798 795 796 796 795 793 796 801 807 812 817 821 823 826 829 833 837 838 839 843 844 844 845 843 847 846 848 847 846 848 851 853 853 853 848 850 848
768 787 791 790 783 776 787 802 803 796 795 796 794 790 791 792 792 792 796 800 804 809 814 817 821 824 827 832 835 839 838 841 844 846 848 847 847 847 850 848 845 847 850 851 850 849 849 849 851
767 750 770 775 795 814 782 822 800 796 798 795 791 790 790 786 787 795 801 797 800 805 811 814 818 822 826 830 832 834 836 839 843 844 845 846 847 849 848 851 850 850 851 848 849 850 855 852 852
756 737 750 764 778 784 792 808 785 787 799 792 785 788 787 785 782 789 797 802 796 801 804 811 815 820 823 829 830 832 834 839 842 845 845 847 847 849 850 850 851 850 849 848 849 853 852 852 852
733 743 749 759 773 807 786 789 793 789 772 774 778 780 783 783 786 785 793 799 802 799 803 808 812 816 821 825 829 832 834 836 836 841 844 845 846 847 849 850 850 848 846 848 851 853 854 853 852
744 765 810 816 805 809 783 790 802 777 762 759 768 772 774 778 781 782 790 792 798 802 803 806 809 813 818 822 827 829 833 834 836 838 841 842 843 844 843 845 845 846 848 850 851 854 856 854 852
755 766 810 820 813 797 776 812 792 771 764 767 761 761 766 773 776 783 785 789 795 798 799 804 807 810 815 819 823 826 830 833 836 838 841 840 841 842 842 846 849 850 851 852 853 853 853 853 853
760 778 753 780 765 792 785 781 775 779 781 771 757 764 764 767 772 778 783 785 791 796 798 802 804 807 813 817 821 823 827 831 834 837 839 840 841 842 844 847 851 852 851 851 851 852 852 853 854
745 742 782 784 814 813 809 809 817 795 790 776 772 768 765 765 771 775 781 782 787 795 801 801 802 805 809 815 820 823 826 829 833 836 837 838 838 841 842 843 847 848 849 849 850 849 851 853 853
756 767 764 767 786 809 815 817 795 788 782 784 773 766 766 765 770 775 779 782 787 793 799 799 801 804 810 813 817 821 824 826 829 833 835 837 838 840 843 842 843 845 846 846 846 847 848 849 851
747 769 771 802 807 818 813 818 778 783 782 777 768 768 766 766 770 773 777 783 791 795 798 800 803 803 807 811 816 818 822 824 826 829 832 834 835 837 840 839 840 842 844 846 845 845 846 847 848